Meteo pe oră la Bucureşti

Astăzi, 30 Septembrie, Miercuri

Timp Temperatura Precipitaţii Vânt Presiune Umiditate
00:00 +16°C° 0.4 mm 3 m/s 750 mmHg 68%
01:00 +14°C° 0.4 mm 3 m/s 750 mmHg 69%
02:00 +14°C° 0.4 mm 4 m/s 750 mmHg 70%
03:00 +14°C° 0 mm 4 m/s 750 mmHg 70%
04:00 +13°C° 0 mm 4 m/s 750 mmHg 70%
05:00 +13°C° 0 mm 4 m/s 750 mmHg 70%
06:00 +13°C° 0 mm 4 m/s 749 mmHg 68%
07:00 +13°C° 0 mm 5 m/s 749 mmHg 66%
08:00 +14°C° 0 mm 5 m/s 749 mmHg 65%
09:00 +15°C° 0 mm 5 m/s 749 mmHg 58%
10:00 +17°C° 0 mm 5 m/s 749 mmHg 52%
11:00 +19°C° 0 mm 5 m/s 749 mmHg 46%
12:00 +20°C° 0 mm 5 m/s 748 mmHg 42%
13:00 +21°C° 0 mm 5 m/s 748 mmHg 38%
14:00 +22°C° 0 mm 5 m/s 748 mmHg 34%
15:00 +22°C° 0 mm 6 m/s 748 mmHg 36%
16:00 +21°C° 0 mm 6 m/s 748 mmHg 39%
17:00 +21°C° 0 mm 6 m/s 748 mmHg 41%
18:00 +20°C° 0 mm 6 m/s 748 mmHg 45%
19:00 +19°C° 0 mm 6 m/s 748 mmHg 49%
20:00 +16°C° 0 mm 6 m/s 748 mmHg 53%
21:00 +16°C° 0 mm 6 m/s 748 mmHg 57%
22:00 +15°C° 0 mm 5 m/s 748 mmHg 62%
23:00 +15°C° 0 mm 5 m/s 747 mmHg 66%

Mâine, 1 Octombrie, Joi

Timp Temperatura Precipitaţii Vânt Presiune Umiditate
00:00 +14°C° 0 mm 5 m/s 747 mmHg 69%
01:00 +14°C° 0 mm 5 m/s 747 mmHg 72%
02:00 +14°C° 0 mm 5 m/s 747 mmHg 74%
03:00 +13°C° 0 mm 5 m/s 747 mmHg 76%
04:00 +13°C° 0 mm 4 m/s 747 mmHg 77%
05:00 +13°C° 0 mm 4 m/s 747 mmHg 79%
06:00 +13°C° 0 mm 4 m/s 747 mmHg 77%
07:00 +14°C° 0 mm 5 m/s 747 mmHg 74%
08:00 +14°C° 0 mm 5 m/s 747 mmHg 72%
09:00 +15°C° 0 mm 5 m/s 747 mmHg 68%
10:00 +16°C° 0 mm 6 m/s 747 mmHg 65%
11:00 +17°C° 0 mm 6 m/s 747 mmHg 61%
12:00 +17°C° 0.1 mm 6 m/s 747 mmHg 65%
13:00 +16°C° 0.1 mm 6 m/s 747 mmHg 70%
14:00 +15°C° 0.1 mm 6 m/s 747 mmHg 74%
15:00 +15°C° 0 mm 6 m/s 747 mmHg 73%
16:00 +15°C° 0 mm 5 m/s 747 mmHg 72%
17:00 +15°C° 0 mm 5 m/s 747 mmHg 71%
18:00 +15°C° 0 mm 5 m/s 748 mmHg 70%
19:00 +15°C° 0 mm 4 m/s 748 mmHg 70%
20:00 +15°C° 0 mm 4 m/s 748 mmHg 70%
21:00 +14°C° 0 mm 4 m/s 748 mmHg 72%
22:00 +14°C° 0 mm 4 m/s 749 mmHg 74%
23:00 +13°C° 0 mm 4 m/s 749 mmHg 76%

Poimâine, 2 Octombrie, Vineri

Timp Temperatura Precipitaţii Vânt Presiune Umiditate
00:00 +14°C° 0 mm 3 m/s 749 mmHg 74%
01:00 +14°C° 0 mm 3 m/s 749 mmHg 73%
02:00 +14°C° 0 mm 3 m/s 749 mmHg 72%
03:00 +14°C° 0 mm 3 m/s 749 mmHg 72%
04:00 +14°C° 0 mm 3 m/s 749 mmHg 72%
05:00 +15°C° 0 mm 2 m/s 749 mmHg 73%
06:00 +14°C° 0 mm 3 m/s 749 mmHg 71%
07:00 +16°C° 0 mm 3 m/s 750 mmHg 69%
08:00 +16°C° 0 mm 3 m/s 750 mmHg 67%
09:00 +18°C° 0 mm 4 m/s 750 mmHg 60%
10:00 +20°C° 0 mm 4 m/s 750 mmHg 52%
11:00 +22°C° 0 mm 4 m/s 751 mmHg 44%
12:00 +23°C° 0 mm 4 m/s 751 mmHg 41%
13:00 +25°C° 0 mm 4 m/s 751 mmHg 38%
14:00 +26°C° 0 mm 4 m/s 751 mmHg 35%
15:00 +26°C° 0 mm 3 m/s 751 mmHg 36%
16:00 +26°C° 0 mm 2 m/s 751 mmHg 36%
17:00 +25°C° 0 mm 1 m/s 751 mmHg 37%
18:00 +24°C° 0 mm 1 m/s 751 mmHg 39%
19:00 +23°C° 0 mm 1 m/s 752 mmHg 42%
20:00 +21°C° 0 mm 1 m/s 752 mmHg 45%
21:00 +21°C° 0 mm 1 m/s 752 mmHg 47%
22:00 +20°C° 0 mm 1 m/s 753 mmHg 49%
23:00 +18°C° 0 mm 2 m/s 753 mmHg 51%

3 Octombrie, Sâmbătă

Timp Temperatura Precipitaţii Vânt Presiune Umiditate
00:00 +18°C° 0 mm 2 m/s 753 mmHg 51%
01:00 +18°C° 0 mm 2 m/s 753 mmHg 52%
02:00 +17°C° 0 mm 2 m/s 753 mmHg 53%
03:00 +17°C° 0 mm 2 m/s 753 mmHg 55%
04:00 +18°C° 0 mm 1 m/s 753 mmHg 56%
05:00 +16°C° 0 mm 1 m/s 753 mmHg 58%
06:00 +18°C° 0 mm 1 m/s 753 mmHg 56%
07:00 +19°C° 0 mm 1 m/s 753 mmHg 54%
08:00 +19°C° 0 mm 1 m/s 753 mmHg 53%
09:00 +22°C° 0 mm 1 m/s 754 mmHg 47%
10:00 +24°C° 0 mm 1 m/s 754 mmHg 42%
11:00 +26°C° 0 mm 1 m/s 754 mmHg 37%
12:00 +27°C° 0 mm 1 m/s 753 mmHg 34%
13:00 +28°C° 0 mm 1 m/s 753 mmHg 30%
14:00 +29°C° 0 mm 1 m/s 753 mmHg 27%
15:00 +29°C° 0 mm 1 m/s 753 mmHg 28%
16:00 +29°C° 0 mm 1 m/s 752 mmHg 29%
17:00 +28°C° 0 mm 1 m/s 752 mmHg 30%
18:00 +27°C° 0 mm 1 m/s 753 mmHg 33%
19:00 +25°C° 0 mm 2 m/s 753 mmHg 35%
20:00 +24°C° 0 mm 2 m/s 753 mmHg 37%
21:00 +23°C° 0 mm 2 m/s 753 mmHg 40%
22:00 +21°C° 0 mm 2 m/s 753 mmHg 43%
23:00 +20°C° 0 mm 2 m/s 754 mmHg 45%

4 Octombrie, Duminică

Timp Temperatura Precipitaţii Vânt Presiune Umiditate
00:00 +20°C° 0 mm 2 m/s 753 mmHg 48%
01:00 +19°C° 0 mm 2 m/s 753 mmHg 51%
02:00 +18°C° 0 mm 2 m/s 753 mmHg 54%
03:00 +18°C° 0 mm 2 m/s 753 mmHg 57%
04:00 +18°C° 0 mm 2 m/s 753 mmHg 60%
05:00 +17°C° 0 mm 2 m/s 753 mmHg 63%
06:00 +18°C° 0 mm 2 m/s 753 mmHg 62%
07:00 +18°C° 0 mm 2 m/s 753 mmHg 61%
08:00 +19°C° 0 mm 2 m/s 753 mmHg 61%
09:00 +21°C° 0 mm 2 m/s 753 mmHg 53%
10:00 +24°C° 0 mm 3 m/s 753 mmHg 46%
11:00 +26°C° 0 mm 3 m/s 753 mmHg 39%
12:00 +28°C° 0 mm 3 m/s 752 mmHg 34%
13:00 +30°C° 0 mm 3 m/s 752 mmHg 30%
14:00 +31°C° 0 mm 3 m/s 752 mmHg 25%
15:00 +31°C° 0 mm 3 m/s 752 mmHg 26%
16:00 +31°C° 0 mm 3 m/s 752 mmHg 27%
17:00 +30°C° 0 mm 3 m/s 751 mmHg 28%
18:00 +29°C° 0 mm 4 m/s 751 mmHg 32%
19:00 +27°C° 0 mm 4 m/s 752 mmHg 35%
20:00 +26°C° 0 mm 4 m/s 752 mmHg 38%
21:00 +25°C° 0 mm 4 m/s 752 mmHg 42%
22:00 +23°C° 0 mm 4 m/s 752 mmHg 46%
23:00 +22°C° 0 mm 4 m/s 752 mmHg 49%

5 Octombrie, Luni

Timp Temperatura Precipitaţii Vânt Presiune Umiditate
00:00 +22°C° 0 mm 4 m/s 752 mmHg 52%
01:00 +21°C° 0 mm 4 m/s 752 mmHg 54%
02:00 +21°C° 0 mm 3 m/s 752 mmHg 57%
03:00 +20°C° 0 mm 3 m/s 752 mmHg 58%
04:00 +20°C° 0 mm 3 m/s 752 mmHg 60%
05:00 +20°C° 0 mm 3 m/s 752 mmHg 61%
06:00 +20°C° 0 mm 3 m/s 752 mmHg 60%
07:00 +21°C° 0 mm 3 m/s 752 mmHg 60%
08:00 +21°C° 0 mm 4 m/s 752 mmHg 59%
09:00 +24°C° 0 mm 3 m/s 752 mmHg 52%
10:00 +26°C° 0 mm 2 m/s 752 mmHg 45%
11:00 +28°C° 0 mm 1 m/s 752 mmHg 39%
12:00 +30°C° 0 mm 2 m/s 752 mmHg 36%
13:00 +31°C° 0 mm 2 m/s 752 mmHg 34%
14:00 +32°C° 0 mm 2 m/s 752 mmHg 31%
15:00 +31°C° 0 mm 2 m/s 752 mmHg 32%
16:00 +31°C° 0 mm 2 m/s 751 mmHg 33%
17:00 +30°C° 0 mm 2 m/s 751 mmHg 34%
18:00 +29°C° 0.1 mm 2 m/s 751 mmHg 37%
19:00 +28°C° 0.1 mm 2 m/s 751 mmHg 40%
20:00 +27°C° 0.1 mm 3 m/s 752 mmHg 43%
21:00 +26°C° 0 mm 3 m/s 751 mmHg 43%
22:00 +26°C° 0 mm 3 m/s 751 mmHg 43%
23:00 +25°C° 0 mm 4 m/s 751 mmHg 43%
Arată mai mult

We Need Your Consent

Meteoprog and our Service Providers may store and access personal data such as cookies, device identifiers or other similar technologies on your device and process such data to personalise content and ads, as well as provide social media features and to analyse the traffic.

  • Store and/or access information on your device

    Cookies, device identifiers or other information can be stored or accessed on your device for the purposes indicated above.

  • Personalised ads and content, ad and content measurement, audience insights, and products development

    Ads and content can be personalised based on a profile. More data can be added to better personalise ads and content. Ad and content performance can be measured. Insights about the audience who saw the ads and content can be derived. Such data can be used to develop or improve user’s experience, systems and software.

By clicking ‘I Agree’ you will allow the use of indicated cookies, device identifiers, web beacons or other similar technologies. Your settings can be changed in the browser on your device.

For certain purposes, legitimate interests may be relied on, rather than consent. You can read more about this in our Privacy and Cookie Policy.